EW3236 Weather Reports


time (UTC)temp
C
wind
direction
speed
KPH
gust
KPH
rain 1hr
cm
rain 24hr
cm
rain mn
cm
humidity
%
barometer
mb
20260507130051 12 92 0.0 0.0 0.00 0.00 0.00 85 1016.5
20260507124550 12 209 0.0 0.0 0.00 0.00 0.00 84 1016.2
20260507123049 12 209 0.0 0.0 0.00 0.00 0.00 84 1016.1
20260507121547 12 209 0.0 0.0 0.00 0.00 0.00 84 1016.0
20260507120045 12 209 0.0 0.0 0.00 0.00 0.00 84 1016.1
20260507114545 12 209 0.0 0.0 0.00 0.00 0.00 84 1016.1
20260507113043 12 209 0.0 0.0 0.00 0.00 0.00 84 1016.1
20260507111545 13 209 0.0 0.0 0.00 0.00 0.00 84 1016.2
20260507110046 13 209 0.0 0.0 0.00 0.00 0.00 84 1016.2
20260507104539 13 209 0.0 0.0 0.00 0.00 0.00 83 1016.3
20260507103039 13 209 0.0 0.0 0.00 0.00 0.00 83 1016.4
20260507101556 13 209 0.0 0.0 0.00 0.00 0.00 83 1016.5
20260507100037 13 209 0.0 0.0 0.00 0.00 0.00 83 1016.4
20260507094533 13 209 0.0 0.0 0.00 0.00 0.00 83 1016.6
20260507093033 14 209 0.0 0.0 0.00 0.00 0.00 83 1016.8
20260507091549 14 209 0.0 0.0 0.00 0.00 0.00 83 1016.8
20260507090027 14 209 0.0 0.0 0.00 0.00 0.00 83 1016.8
20260507084527 14 209 0.0 0.0 0.00 0.00 0.00 83 1017.0
20260507083025 14 209 0.0 0.0 0.00 0.00 0.00 82 1017.1
20260507081527 15 209 0.0 0.0 0.00 0.00 0.00 82 1017.2
20260507080020 15 209 0.0 0.0 0.00 0.00 0.00 82 1017.4
20260507074519 15 209 0.0 0.0 0.00 0.00 0.00 82 1017.4
20260507073018 15 209 0.0 0.0 0.00 0.00 0.00 82 1017.4
20260507071516 15 210 0.0 0.0 0.00 0.00 0.00 81 1017.5
20260507070014 15 211 0.0 0.0 0.00 0.00 0.00 81 1017.5
20260507064515 15 253 0.0 0.0 0.00 0.00 0.00 80 1017.5
20260507063013 15 253 0.0 0.0 0.00 0.00 0.00 80 1017.6
20260507061527 15 253 0.0 0.0 0.00 0.00 0.00 79 1017.6
20260507060016 15 253 0.0 0.0 0.00 0.00 0.00 79 1017.6
20260507054512 16 253 0.0 0.0 0.00 0.00 0.00 79 1017.7
20260507053015 16 253 0.0 0.0 0.00 0.00 0.00 79 1017.6
20260507051511 16 253 0.0 0.0 0.00 0.00 0.00 78 1017.5
20260507050022 16 253 0.0 0.0 0.00 0.00 0.00 77 1017.6
20260507044525 16 253 0.0 0.0 0.00 0.00 0.00 77 1017.4
20260507043010 16 250 0.0 0.0 0.00 0.00 0.00 76 1017.4
20260507041509 17 246 0.0 0.0 0.00 0.00 0.00 74 1017.3
20260507040010 17 243 0.0 0.0 0.00 0.00 0.00 72 1017.3
20260507034509 17 247 0.0 0.0 0.00 0.00 0.00 69 1017.1
20260507033010 17 239 0.0 0.0 0.00 0.00 0.00 68 1017.0
20260507031507 17 217 0.0 0.0 0.00 0.00 0.00 67 1016.9
20260507030008 18 248 0.0 0.0 0.00 0.00 0.00 66 1016.9
20260507024506 18 253 0.0 0.0 0.00 0.00 0.00 64 1016.7
20260507023005 18 278 0.0 0.0 0.00 0.00 0.00 63 1016.5
20260507021505 18 261 0.0 0.0 0.00 0.00 0.00 63 1016.5
20260507020004 18 265 0.0 0.0 0.00 0.00 0.00 62 1016.3
20260507014504 19 244 0.0 0.0 0.00 0.00 0.00 62 1016.4
20260507013003 19 299 0.0 0.0 0.00 0.00 0.00 61 1016.3
20260507011502 20 272 0.0 0.0 0.00 0.00 0.00 62 1016.2
20260507010002 20 267 0.0 0.0 0.00 0.00 0.00 62 1016.1
20260507004502 20 233 0.0 0.0 0.00 0.00 0.00 61 1016.1
20260507003002 20 221 0.0 0.0 0.00 0.00 0.00 60 1016.1
20260507001503 20 272 0.0 0.0 0.00 0.00 0.00 58 1015.8
20260507000002 21 272 0.0 0.0 0.00 0.00 0.00 58 1015.8
20260506234600 21 250 0.0 0.0 0.00 0.00 0.00 58 1015.7
20260506233100 21 255 0.0 0.0 0.00 0.00 0.00 58 1015.7
20260506231558 21 254 0.0 0.0 0.00 0.00 0.00 58 1015.8
20260506230104 21 238 0.0 0.0 0.00 0.00 0.00 56 1015.9
20260506224558 21 242 0.0 0.0 0.00 0.00 0.00 56 1016.0
20260506223055 21 269 0.0 0.0 0.00 0.00 0.00 55 1016.1
20260506221556 22 250 0.0 0.0 0.00 0.00 0.00 55 1016.0
20260506220054 22 288 0.0 0.0 0.00 0.00 0.00 54 1016.2
20260506214552 23 277 0.0 0.0 0.00 0.00 0.00 53 1016.3
20260506213051 23 280 0.0 0.0 0.00 0.00 0.00 52 1016.4
20260506211550 23 240 0.0 0.0 0.00 0.00 0.00 51 1016.4
20260506210051 23 279 0.0 0.0 0.00 0.00 0.00 51 1016.5
20260506204548 23 268 0.0 0.0 0.00 0.00 0.00 51 1016.6
20260506203051 23 239 0.0 0.0 0.00 0.00 0.00 51 1016.7
20260506201607 24 271 0.0 0.0 0.00 0.00 0.00 47 1016.8
20260506200045 24 277 0.0 0.0 0.00 0.00 0.00 47 1016.9
20260506194550 23 211 0.0 0.0 0.00 0.00 0.00 47 1016.9
20260506193049 24 252 0.0 0.0 0.00 0.00 0.00 47 1017.1
20260506191543 24 261 0.0 0.0 0.00 0.00 0.00 46 1017.4
20260506190037 22 233 0.0 0.0 0.00 0.00 0.00 48 1017.4
20260506184546 23 279 0.0 0.0 0.00 0.00 0.00 47 1017.6
20260506183033 22 205 0.0 0.0 0.00 0.00 0.00 49 1017.7
20260506181532 22 256 0.0 0.0 0.00 0.00 0.00 50 1017.9
20260506180030 21 226 0.0 0.0 0.00 0.00 0.00 53 1018.1
20260506174527 21 217 0.0 0.0 0.00 0.00 0.00 54 1018.2
20260506173026 21 200 0.0 0.0 0.00 0.00 0.00 56 1018.3
20260506171525 20 296 0.0 0.0 0.00 0.00 0.00 56 1018.5
20260506170020 19 292 0.0 0.0 0.00 0.00 0.00 57 1018.5
20260506164517 18 274 0.0 0.0 0.00 0.00 0.00 61 1018.6
20260506163029 18 239 0.0 0.0 0.00 0.00 0.00 62 1018.6
20260506161511 17 248 0.0 0.0 0.00 0.00 0.00 64 1018.6
20260506160011 17 248 0.0 0.0 0.00 0.00 0.00 67 1018.6
20260506154503 16 161 0.0 0.0 0.00 0.00 0.00 69 1018.7
20260506153001 16 161 0.0 0.0 0.00 0.00 0.00 69 1018.7
20260506151557 15 161 0.0 0.0 0.00 0.00 0.00 72 1018.8
20260506150053 15 161 0.0 0.0 0.00 0.00 0.00 74 1018.9
20260506144550 14 163 0.0 0.0 0.00 0.00 0.00 79 1018.9
20260506143049 13 165 0.0 0.0 0.00 0.00 0.00 82 1018.8
20260506141553 12 195 0.0 0.0 0.00 0.00 0.00 85 1018.7
20260506140054 11 223 0.0 0.0 0.00 0.00 0.00 86 1018.7
20260506134545 11 223 0.0 0.0 0.00 0.00 0.00 85 1018.6
20260506133044 10 228 0.0 0.0 0.00 0.00 0.00 85 1018.5
20260506131543 10 228 0.0 0.0 0.00 0.00 0.00 84 1018.5